Location: Newark
(45.4981°N, 4.1681°E)
Time: 13:29:17
(UTC+00:00)

N. Korean satellite - Visible Passes

Search period start: 23 September 2019 00:00
Search period end: 03 October 2019 00:00
Orbit: 455 x 509 km, 97.2° (Epoch: 22 September)

Date Brightness Start Highest point End Pass type
(mag) Time Alt. Az. Time Alt. Az. Time Alt. Az.
24 Sep 9.7 04:53:10 10° NE 04:55:35 18° E 04:58:01 10° SE visible
28 Sep 9.9 04:45:57 10° NE 04:47:59 15° E 04:50:02 10° SE visible
29 Sep 10.7 18:06:55 10° W 18:07:30 10° W 18:08:05 10° W visible
01 Oct 9.4 05:02:54 10° NE 05:05:46 24° E 05:08:39 10° SSE visible
02 Oct 10.1 04:38:49 10° ENE 04:40:20 12° E 04:41:52 10° ESE visible
